This demonstration page uses our WeatherBlox Daily Observations layout. Learn more.

Left ArrowRight Arrow

Hourly Observations for January 3, 2017

Temp ( °F °C ) Dew Point ( °F °C ) Humidity (%) Winds ( mph kmh ) Pressure ( in mb ) Visibility ( mi km ) Precip ( " mm )
12:41 am 00:41 Cloudy with Mist and Fog 47 8.3 46 7.8 97 97 SSW 3 6 29.85 1011 1 2 0.00 0.00
12:49 am 00:49 Cloudy with Mist and Fog 46 8 46 8 100 100 S 3 6 29.85 1011 3 5 0.00 0.00
12:52 am 00:52 Cloudy with Mist and Fog 47 8.3 46 7.8 97 97 S 3 6 29.83 1010 3 5 0.00 0.00
1:07 am 01:07 Cloudy with Mist and Fog 47 8.3 46 7.8 97 97 S 3 6 29.85 1011 2 2 0.00 0.00
1:48 am 01:48 Mostly Cloudy with Fog 46 8 46 8 100 100 S 3 6 29.85 1011 0 0 0.00 0.00
1:52 am 01:52 Mostly Cloudy with Fog 47 8.3 46 7.8 97 97 Calm 29.82 1010 0 0 0.00 0.00
2:52 am 02:52 Mostly Cloudy with Fog 46 7.8 46 7.8 100 100 SSW 3 6 29.83 1010 0 0 0.00 0.00
3:52 am 03:52 Mostly Cloudy with Fog 47 8.3 47 8.3 100 100 WSW 3 6 29.83 1010 0 0 0.00 0.00
3:59 am 03:59 Mostly Cloudy with Fog 47 8.3 47 8.3 100 100 WSW 3 6 29.85 1011 1 1 0.00 0.00
4:06 am 04:06 Mostly Cloudy with Fog 48 9 46 8 94 94 W 3 6 29.83 1010 0 0 0.00 0.00
4:52 am 04:52 Mostly Cloudy with Fog 50 10 49 9.4 96 96 NW 9 15 29.83 1010 0 0 0.00 0.00
5:10 am 05:10 Cloudy with Mist and Fog 50 10 48 9 94 94 NW 14 22 29.83 1010 1 2 0.00 0.00
5:52 am 05:52 Cloudy with Mist and Fog 49 9.4 48 8.9 97 97 N 12 19 29.84 1011 6 10 0.00 0.00
6:23 am 06:23 Cloudy with Light Rain 48 8.9 47 8.3 96 96 N 16 26 29.85 1011 9 14 0.00 0.00
6:52 am 06:52 Cloudy with Mist and Fog 48 8.9 47 8.3 96 96 N 14 22 29.86 1011 5 8 0.00 0.00
6:59 am 06:59 Cloudy with Light Rain 47 8.3 46 7.8 97 97 N 14 22 29.91 1013 3 4 0.00 0.00
7:11 am 07:11 Cloudy with Light Rain 47 8.3 46 7.8 97 97 NNW 16 26 29.91 1013 3 5 0.00 0.00
7:52 am 07:52 Cloudy with Mist and Fog 45 7.2 44 6.7 97 97 NNW 13 20 29.89 1012 4 6 0.00 0.00
8:04 am 08:04 Cloudy with Mist and Fog 45 7 45 7 100 100 NNW 16 26 29.94 1014 2 3 0.00 0.00
8:52 am 08:52 Cloudy with Mist and Fog 44 6.7 43 6.1 96 96 N 16 26 29.94 1014 2 3 0.00 0.00
9:39 am 09:39 Cloudy with Mist and Fog 43 6.1 41 5 93 93 NNW 15 24 30.00 1016 2 3 0.00 0.00
9:52 am 09:52 Cloudy with Mist and Fog 42 5.6 41 5 96 96 NNW 16 26 29.98 1015 2 3 0.00 0.00
10:52 am 10:52 Cloudy with Mist and Fog 39 3.9 38 3.3 96 96 NNW 20 31 30.02 1017 2 3 0.00 0.00
11:06 am 11:06 Cloudy with Mist and Fog 39 4 37 3 93 93 NNW 20 31 30.06 1018 4 6 0.00 0.00
11:36 am 11:36 Cloudy 39 4 37 3 93 93 NNW 16 26 30.06 1018 8 13 0.00 0.00
11:52 am 11:52 Cloudy 39 3.9 36 2.2 89 89 NNW 14 22 30.01 1016 7 11 0.00 0.00
12:52 pm 12:52 Cloudy with Mist and Fog 38 3.3 35 1.7 89 89 NNW 15 24 30.00 1016 6 10 0.00 0.00
1:52 pm 13:52 Cloudy with Mist and Fog 37 2.8 35 1.7 93 93 NNW 17 28 30.01 1016 5 8 0.00 0.00
2:44 pm 14:44 Cloudy with Mist and Fog 36 2 34 1 93 93 NW 18 30 30.09 1019 3 4 0.00 0.00
2:52 pm 14:52 Cloudy with Mist and Fog 35 1.7 33 0.6 93 93 NNW 16 26 30.04 1017 3 4 0.00 0.00
3:06 pm 15:06 Cloudy with Mist and Fog 34 1 32 0 93 93 NNW 18 30 30.09 1019 3 5 0.00 0.00
3:42 pm 15:42 Cloudy with Mist and Fog 34 1 30 -1 87 87 NW 16 26 30.12 1020 5 8 0.00 0.00
3:52 pm 15:52 Cloudy with Mist and Fog 32 0 29 -1.7 88 88 NNW 17 28 30.07 1018 6 10 0.00 0.00
4:13 pm 16:13 Cloudy with Mist and Fog 32 0 29 -1.7 88 88 NW 14 22 30.12 1020 6 10 0.00 0.00
4:52 pm 16:52 Cloudy 32 0 27 -2.8 82 82 NNW 15 24 30.09 1019 9 14 0.00 0.00
5:17 pm 17:17 Cloudy 31 -0.6 25 -3.9 79 79 NNW 14 22 30.18 1022 10 16 0.00 0.00
5:52 pm 17:52 Cloudy 30 -1.1 24 -4.4 79 79 NW 15 24 30.13 1020 10 16 0.00 0.00
6:49 pm 18:49 Cloudy 28 -2 21 -6 74 74 NNW 17 28 30.21 1023 10 16 0.00 0.00
6:52 pm 18:52 Cloudy 28 -2.2 21 -6.1 75 75 NNW 17 28 30.15 1021 10 16 0.00 0.00
7:52 pm 19:52 Clear 26 -3.3 19 -7.2 75 75 NNW 12 19 30.18 1022 10 16 0.00 0.00
8:52 pm 20:52 Clear 24 -4.4 18 -7.8 77 77 NNW 12 19 30.19 1022 10 16 0.00 0.00
9:52 pm 21:52 Clear 24 -4.4 17 -8.3 75 75 NNW 15 24 30.22 1023 10 16 0.00 0.00
10:52 pm 22:52 Clear 23 -5 15 -9.4 72 72 N 14 22 30.24 1024 10 16 0.00 0.00
11:52 pm 23:52 Clear 21 -6.1 14 -10 74 74 NNW 16 26 30.26 1025 10 16 0.00 0.00

Powered by AerisWeather